Weather History for Robstown, TX

Change the Weather History Date:

Monday, February 24, 2014

  Actual Average (KCRP) Record (KCRP)
Temperature  
Mean Temperature 74 °F 62 °F  
Max Temperature 81 °F 72 °F 90 °F (2007)
Min Temperature 68 °F 52 °F 29 °F (1968)
Degree Days  
Heating Degree Days 0 5  
Month to date heating degree days 155  
Since 1 July heating degree days 782  
Cooling Degree Days 10 2  
Month to date cooling degree days 41  
Year to date cooling degree days 71  
Growing Degree Days 24 (Base 50)    
Moisture  
Dew Point 67 °F    
Average Humidity 89    
Maximum Humidity 97    
Minimum Humidity 62    
Precipitation  
Precipitation 0.00 in 0.07 in 1.39 in (2004)
Month to date precipitation 1.61  
Year to date precipitation 3.15  
Snow  
Snow 0.00 in - - ()
Month to date snowfall  
Since 1 July snowfall  
Snow Depth -    
Sea Level Pressure  
Sea Level Pressure 30.00 in    
Wind  
Wind Speed 6 mph (East)    
Max Wind Speed 22 mph    
Max Gust Speed 28 mph    
Visibility 5 miles    
Events Fog , Rain    
T = Trace of Precipitation, MM = Missing Value Source: NWS Daily Summary

Daily Weather History Graph

Daily Weather History Graph

Search for Another Location

Airport:

Trip Planner

Search our weather history database for the weather conditions in past years. The results will help you decide how hot, cold, wet, or windy it might be!

Date:

Astronomy

Feb. 24, 2014 Rise Set
Actual Time 7:00 AM CST 6:28 PM CST
Civil Twilight 6:36 AM CST 6:51 PM CST
Nautical Twilight 6:09 AM CST 7:19 PM CST
Astronomical Twilight 5:42 AM CST 7:46 PM CST
Moon 2:44 AM CST (2/24) 1:45 PM CST (2/24)
Length of Visible Light 12h 15m
Length of Day
11h 28m
Waning Crescent, 28% of the Moon is Illuminated
Feb 24
Waning Crescent
Mar 1
New
Mar 8
First Quarter
Mar 16
Full
Mar 23
Last Quarter

Hourly Weather History & Observations

Time (CST) Temp. Heat Index Dew Point Humidity Pressure Visibility Wind Dir Wind Speed Gust Speed Precip Events Conditions
12:15 AM 68.0 °F - 66.7 °F 96% 29.99 in 0.5 mi Calm Calm - N/A Fog Fog
12:35 AM 68.0 °F - 67.1 °F 97% 29.98 in 0.2 mi ESE 3.5 mph - N/A Fog Fog
12:55 AM 68.0 °F - 67.1 °F 97% 29.98 in 0.2 mi Calm Calm - N/A Fog Fog
1:10 AM 68.0 °F - 67.1 °F 97% 29.98 in 0.2 mi ENE 4.6 mph - N/A Fog Fog
1:35 AM 68.0 °F - 66.7 °F 96% 29.97 in 0.5 mi Calm Calm - N/A Fog Fog
1:55 AM 68.0 °F - 67.1 °F 97% 29.97 in 0.8 mi East 4.6 mph - N/A   Overcast
2:15 AM 68.2 °F - 67.3 °F 97% 29.97 in 0.8 mi East 4.6 mph - N/A   Overcast
2:35 AM 68.5 °F - 67.6 °F 97% 29.97 in 1.0 mi Calm Calm - N/A   Overcast
2:55 AM 68.4 °F - 67.5 °F 97% 29.97 in 0.5 mi Calm Calm - N/A Fog Fog
3:15 AM 68.5 °F - 67.6 °F 97% 29.97 in 0.2 mi Calm Calm - N/A Fog Fog
3:35 AM 68.9 °F - 68.0 °F 97% 29.96 in 0.5 mi Calm Calm - N/A Fog Fog
3:55 AM 68.5 °F - 67.6 °F 97% 29.96 in 0.5 mi NNE 3.5 mph - N/A Fog Fog
4:15 AM 68.4 °F - 67.5 °F 97% 29.97 in 0.2 mi NNE 3.5 mph - N/A Fog Fog
4:35 AM 68.2 °F - 67.3 °F 97% 29.97 in 0.2 mi NNE 3.5 mph - N/A Fog Fog
4:55 AM 68.2 °F - 67.3 °F 97% 29.97 in 0.5 mi NE 4.6 mph - N/A Fog Fog
5:15 AM 68.2 °F - 67.3 °F 97% 29.97 in 0.8 mi NE 4.6 mph - N/A   Overcast
5:35 AM 68.2 °F - 67.3 °F 97% 29.98 in 1.0 mi NNE 3.5 mph - N/A   Overcast
5:50 AM 68.4 °F - 67.5 °F 97% 29.99 in 1.5 mi Calm Calm - N/A   Overcast
6:15 AM 68.4 °F - 67.5 °F 97% 30.00 in 1.0 mi Calm Calm - N/A   Overcast
6:35 AM 68.4 °F - 67.5 °F 97% 30.01 in 0.8 mi North 3.5 mph - N/A   Overcast
6:55 AM 68.5 °F - 67.6 °F 97% 30.01 in 0.5 mi NNE 3.5 mph - N/A Fog Fog
7:15 AM 68.4 °F - 67.5 °F 97% 30.02 in 0.5 mi NNE 4.6 mph - N/A Fog Fog
7:35 AM 68.0 °F - 67.1 °F 97% 30.03 in 0.2 mi NE 6.9 mph - N/A Fog Fog
7:55 AM 68.0 °F - 67.1 °F 97% 30.04 in 0.2 mi NE 6.9 mph - N/A Rain Rain
8:15 AM 68.0 °F - 67.1 °F 97% 30.04 in 0.2 mi ENE 5.8 mph - N/A   Light Drizzle
8:35 AM 68.0 °F - 67.1 °F 97% 30.05 in 0.5 mi NE 5.8 mph - N/A Fog Fog
8:55 AM 68.2 °F - 67.3 °F 97% 30.06 in 0.8 mi NE 6.9 mph - N/A   Overcast
9:15 AM 68.9 °F - 68.0 °F 97% 30.06 in 5.0 mi NE 9.2 mph - N/A   Overcast
9:35 AM 68.9 °F - 68.0 °F 97% 30.05 in 5.0 mi NE 10.4 mph - N/A   Overcast
9:55 AM 69.3 °F - 68.4 °F 97% 30.06 in 7.0 mi NE 11.5 mph - N/A   Overcast
10:15 AM 68.7 °F - 67.8 °F 97% 30.06 in 4.0 mi NE 11.5 mph - N/A   Overcast
10:35 AM 68.7 °F - 67.8 °F 97% 30.07 in 3.0 mi NE 10.4 mph - N/A   Overcast
10:55 AM 70.2 °F - 68.4 °F 94% 30.07 in 5.0 mi NE 10.4 mph - N/A   Mostly Cloudy
11:15 AM 71.6 °F - 68.5 °F 90% 30.07 in 7.0 mi East 11.5 mph - N/A   Scattered Clouds
11:35 AM 72.5 °F - 68.0 °F 86% 30.07 in 7.0 mi ENE 12.7 mph - N/A   Clear
11:55 AM 73.9 °F - 66.2 °F 77% 30.07 in 10.0 mi ENE 12.7 mph - N/A   Clear
12:15 PM 74.3 °F - 66.2 °F 76% 30.05 in 10.0 mi East 15.0 mph - N/A   Clear
12:35 PM 74.7 °F - 65.8 °F 74% 30.02 in 10.0 mi East 16.1 mph 23.0 mph N/A   Clear
12:55 PM 76.1 °F - 66.7 °F 73% 30.01 in 10.0 mi East 19.6 mph - N/A   Clear
1:15 PM 77.0 °F - 67.1 °F 71% 30.00 in 10.0 mi East 19.6 mph - N/A   Clear
1:35 PM 77.2 °F - 67.1 °F 71% 29.99 in 10.0 mi ESE 17.3 mph - N/A   Clear
1:55 PM 77.0 °F - 66.4 °F 70% 29.98 in 10.0 mi SE 18.4 mph - N/A   Clear
2:10 PM 78.8 °F - 67.1 °F 67% 29.97 in 10.0 mi SE 21.9 mph - N/A   Clear
2:35 PM 81.3 °F 83.8 °F 67.3 °F 62% 29.94 in 10.0 mi ESE 20.7 mph 25.3 mph N/A   Clear
2:55 PM 81.1 °F 83.7 °F 67.3 °F 63% 29.93 in 10.0 mi SE 20.7 mph 27.6 mph N/A   Scattered Clouds
3:15 PM 79.7 °F - 67.6 °F 66% 29.96 in 10.0 mi SSE 17.3 mph - N/A   Scattered Clouds
3:35 PM 77.7 °F - 67.5 °F 71% 29.96 in 10.0 mi SE 17.3 mph - N/A   Mostly Cloudy
3:55 PM 75.7 °F - 67.5 °F 75% 29.96 in 10.0 mi SE 16.1 mph - N/A   Overcast
4:15 PM 74.7 °F - 67.8 °F 79% 29.96 in 10.0 mi SE 11.5 mph - N/A   Overcast
4:35 PM 74.3 °F - 67.6 °F 80% 29.96 in 10.0 mi SE 10.4 mph - N/A   Overcast
4:55 PM 74.5 °F - 68.0 °F 80% 29.97 in 10.0 mi SE 10.4 mph - N/A   Overcast
5:15 PM 74.3 °F - 68.0 °F 81% 29.97 in 10.0 mi East 6.9 mph - N/A   Overcast
5:35 PM 73.9 °F - 68.0 °F 82% 29.97 in 10.0 mi East 8.1 mph - N/A   Overcast
5:55 PM 73.0 °F - 67.3 °F 82% 29.98 in 10.0 mi ENE 6.9 mph - N/A   Overcast
6:15 PM 72.7 °F - 67.5 °F 84% 29.98 in 10.0 mi East 6.9 mph - N/A   Mostly Cloudy
6:35 PM 72.3 °F - 67.1 °F 84% 29.98 in 10.0 mi East 6.9 mph - N/A   Mostly Cloudy
6:55 PM 71.6 °F - 66.7 °F 85% 29.98 in 10.0 mi East 8.1 mph - N/A   Scattered Clouds
7:15 PM 70.5 °F - 66.4 °F 87% 29.98 in 10.0 mi East 10.4 mph - N/A   Clear
7:35 PM 69.4 °F - 66.2 °F 89% 29.98 in 7.0 mi ENE 8.1 mph - N/A   Clear
7:55 PM 69.1 °F - 66.7 °F 92% 29.99 in 7.0 mi East 8.1 mph - N/A   Mostly Cloudy
8:15 PM 69.1 °F - 67.1 °F 93% 30.00 in 4.0 mi East 9.2 mph - N/A   Overcast
8:35 PM 68.9 °F - 67.1 °F 94% 30.01 in 2.5 mi East 9.2 mph - N/A   Overcast
8:55 PM 68.9 °F - 67.3 °F 95% 30.02 in 1.2 mi ESE 8.1 mph - N/A   Overcast
9:15 PM 68.9 °F - 67.5 °F 95% 30.02 in 1.0 mi East 6.9 mph - N/A   Overcast
9:35 PM 68.9 °F - 67.6 °F 96% 30.02 in 1.5 mi East 8.1 mph - N/A   Overcast
9:55 PM 68.9 °F - 67.5 °F 95% 30.02 in 5.0 mi East 6.9 mph - N/A   Overcast
10:15 PM 68.4 °F - 66.7 °F 95% 30.01 in 5.0 mi East 9.2 mph - N/A   Scattered Clouds
10:35 PM 68.0 °F - 66.2 °F 94% 30.02 in 5.0 mi ESE 5.8 mph - N/A   Scattered Clouds
10:55 PM 69.8 °F - 67.5 °F 92% 30.01 in 7.0 mi SE 8.1 mph - N/A   Mostly Cloudy
11:15 PM 69.8 °F - 67.3 °F 92% 30.01 in 7.0 mi SE 5.8 mph - N/A   Overcast
11:35 PM 70.0 °F - 67.3 °F 91% 30.01 in 7.0 mi SE 6.9 mph - N/A   Overcast
11:55 PM 69.8 °F - 67.1 °F 91% 30.00 in 7.0 mi ESE 5.8 mph - N/A   Overcast